Location: Bílinka
(49.3579°N, 14.3767°E)
Time: 00:23:57
(UTC+00:00)

FENGYUN 1C DEB - Pass Details

Date: 25 February 2024
Orbit: 849 x 891 km, 98.8° (Epoch: 24 April)

Event Time Altitude Azimuth Distance (km) Brightness Sun altitude
Rises 16:58:48 0° 137° (SE) 3,409 ? -4.2°
Reaches altitude 10° 17:01:18 10° 130° (SE) 2,481 ? -4.6°
Maximum altitude 17:06:19 38° 64° (ENE) 1,294 ? -5.4°
Drops below altitude 10° 17:11:25 10° 358° (N) 2,516 ? -6.2°
Sets 17:13:57 0° 351° (N) 3,464 ? -6.6°
